Date,TemperatureHighF,TemperatureAvgF,TemperatureLowF,DewpointHighF,DewpointAvgF,DewpointLowF,HumidityHigh,HumidityAvg,HumidityLow,PressureMaxIn,PressureMinIn,WindSpeedMaxMPH,WindSpeedAvgMPH,GustSpeedMaxMPH,PrecipitationSumIn
2013-4-1,83,77,73,69,64,59,74,65,47,30.09,29.97,20,7,20,0.00
2013-4-2,84,75,67,68,64,61,92,71,52,30.12,30.00,12,6,12,0.00
2013-4-3,87,79,74,70,66,64,72,66,52,30.12,30.03,14,7,14,0.00
2013-4-4,85,77,71,73,68,62,86,74,66,30.09,29.94,19,8,19,0.81
2013-4-5,75,70,67,70,66,63,93,86,78,30.03,29.85,21,6,21,1.05
2013-4-6,78,70,61,66,61,56,93,75,52,30.12,29.94,15,8,15,0.00
2013-4-7,80,74,72,63,61,58,69,62,50,30.18,30.06,17,8,17,0.00
2013-4-8,86,77,72,62,58,56,60,53,42,30.18,30.06,10,5,11,0.01
2013-4-9,85,78,75,67,64,26,69,62,16,30.21,30.06,13,7,13,0.01
2013-4-10,86,79,75,72,68,63,76,68,62,30.15,30.03,19,7,19,0.01
2013-4-11,87,80,76,73,71,69,80,74,64,30.06,29.94,20,10,20,0.00
2013-4-12,87,81,78,77,73,71,82,78,71,30.00,29.91,18,9,18,0.05
2013-4-13,82,78,75,74,72,69,87,81,75,30.03,29.88,15,4,15,0.11
2013-4-14,90,81,75,78,74,70,90,80,64,30.00,29.94,13,5,13,0.00
2013-4-15,89,80,73,79,73,66,88,80,68,30.09,29.94,14,4,14,0.33
2013-4-16,87,80,74,77,73,69,92,81,66,30.15,30.06,13,5,13,0.01
2013-4-17,86,80,76,70,68,64,79,67,52,30.15,30.06,58,6,58,0.00
2013-4-18,90,82,77,73,69,66,76,66,53,30.09,30.00,17,8,17,0.00
2013-4-19,90,83,79,74,71,69,77,68,57,30.09,30.00,20,9,20,0.00
2013-4-20,89,80,75,77,73,68,88,78,66,30.12,29.97,17,6,17,0.76
2013-4-21,86,79,73,74,72,68,92,79,65,30.15,30.00,15,5,15,0.00
2013-4-22,86,76,72,72,69,66,88,79,63,30.09,29.94,16,5,16,1.27
2013-4-23,83,76,69,69,65,58,92,70,49,30.12,29.94,15,8,15,0.00
2013-4-24,88,79,74,64,60,58,63,53,41,30.18,30.06,14,7,14,0.01
2013-4-25,85,79,74,60,58,55,58,50,40,30.24,30.09,12,6,12,0.00
2013-4-26,84,78,74,63,60,56,60,55,48,30.27,30.12,13,7,13,0.13
2013-4-27,86,79,75,64,61,57,62,54,45,30.24,30.12,17,9,17,0.00
2013-4-28,87,79,75,63,60,57,64,53,40,30.15,30.00,15,8,15,0.00
2013-4-29,85,80,76,68,64,45,70,60,32,30.09,29.94,15,9,15,0.00
2013-4-30,84,79,76,71,68,65,73,68,63,30.03,29.94,15,5,15,0.03